Tarboro, NC

7:43 AM EDT on May 29, 2017 (GMT -0400)
Tarboro-edgecombe

Weather History for KETC - January, 2013

Change the Weather History Date:

Friday, January 25, 2013

  Actual Average Record
Temperature  
Mean Temperature 22 °F -  
Max Temperature 29 °F 55 °F 76 °F (1950)
Min Temperature 16 °F 32 °F 13 °F (1963)
Degree Days  
Heating Degree Days 42    
Moisture  
Dew Point 19 °F    
Average Humidity 81    
Maximum Humidity 94    
Minimum Humidity 44    
Precipitation  
Precipitation 0.27 in - - ()
Sea Level Pressure  
Sea Level Pressure 30.34 in    
Wind  
Wind Speed 1 mph (SW)    
Max Wind Speed 7 mph    
Max Gust Speed -    
Visibility 8 miles    
Events Snow    
Averages and records for this station are not official NWS values.
T = Trace of Precipitation, MM = Missing Value Source: NWS Daily Summary

Daily Weather History Graph

Daily Weather History Graph

Search for Another Location

Airport or City:

Trip Planner

Search our weather history database for the weather conditions in past years. The results will help you decide how hot, cold, wet, or windy it might be!

Date:

Astronomy

Jan. 25, 2013 Rise Set
Actual Time 7:15 AM EST 5:30 PM EST
Civil Twilight 6:48 AM EST 5:57 PM EST
Nautical Twilight 6:17 AM EST 6:28 PM EST
Astronomical Twilight 5:46 AM EST 6:58 PM EST
Moon 4:25 PM EST (1/25) 5:53 AM EST (1/25)
Length of Visible Light 11h 09m
Length of Day
10h 14m
Waxing Gibbous, 98% of the Moon is Illuminated
Jan 25
Waxing Gibbous
Jan 26
Full
Feb 3
Last Quarter
Feb 10
New
Feb 17
First Quarter

Hourly Weather History & Observations

Time (EST) Temp. Windchill Dew Point Humidity Pressure Visibility Wind Dir Wind Speed Gust Speed Precip Events Conditions
12:15 AM 17.4 °F - 13.1 °F 83% 30.54 in 10.0 mi Calm Calm - N/A   Clear
12:35 AM 17.6 °F 12.3 °F 12.9 °F 82% 30.54 in 10.0 mi NNE 3.5 mph - N/A   Clear
12:55 AM 17.6 °F - 12.6 °F 81% 30.52 in 10.0 mi Calm Calm - N/A   Clear
1:15 AM 17.1 °F 11.7 °F 13.3 °F 85% 30.52 in 10.0 mi NE 3.5 mph - N/A   Clear
1:55 AM 17.8 °F - 11.3 °F 76% 30.52 in 10.0 mi Calm Calm - N/A   Clear
2:15 AM 17.6 °F - 11.5 °F 77% 30.54 in 10.0 mi Calm Calm - N/A   Clear
2:35 AM 17.8 °F - 13.1 °F 82% 30.54 in 10.0 mi Calm Calm - N/A   Clear
2:55 AM 18.3 °F - 15.4 °F 89% 30.53 in 10.0 mi Calm Calm - N/A   Clear
3:15 AM 18.3 °F - 14.7 °F 86% 30.53 in 10.0 mi Calm Calm - N/A   Clear
3:35 AM 18.1 °F - 14.9 °F 87% 30.53 in 10.0 mi Calm Calm - N/A   Clear
3:55 AM 17.4 °F - 13.6 °F 85% 30.52 in 10.0 mi Calm Calm - N/A   Clear
4:15 AM 17.1 °F - 12.7 °F 83% 30.52 in 10.0 mi Calm Calm - N/A   Clear
4:35 AM 17.1 °F - 13.3 °F 85% 30.52 in 10.0 mi Calm Calm - N/A   Clear
4:55 AM 17.1 °F - 13.8 °F 87% 30.51 in 10.0 mi Calm Calm - N/A   Clear
5:15 AM 16.7 °F - 13.6 °F 88% 30.52 in 10.0 mi Calm Calm - N/A   Clear
5:55 AM 17.2 °F - 13.8 °F 86% 30.52 in 10.0 mi Calm Calm - N/A   Clear
6:15 AM 17.6 °F - 14.0 °F 86% 30.53 in 10.0 mi Calm Calm - N/A   Clear
6:35 AM 18.0 °F - 14.7 °F 87% 30.53 in 10.0 mi Calm Calm - N/A   Clear
7:15 AM 18.9 °F - 15.1 °F 85% 30.52 in 10.0 mi Calm Calm - N/A   Clear
7:35 AM 19.6 °F - 16.0 °F 86% 30.51 in 10.0 mi Calm Calm - N/A   Clear
7:55 AM 20.1 °F - 16.0 °F 84% 30.50 in 10.0 mi Calm Calm - N/A   Clear
8:15 AM 21.0 °F - 15.8 °F 80% 30.51 in 10.0 mi Calm Calm - N/A   Clear
8:35 AM 21.9 °F - 15.1 °F 75% 30.49 in 10.0 mi Calm Calm - N/A   Clear
8:55 AM 23.0 °F - 14.5 °F 70% 30.48 in 10.0 mi Calm Calm - N/A   Clear
9:15 AM 23.9 °F 19.5 °F 13.6 °F 65% 30.47 in 10.0 mi East 3.5 mph - N/A   Clear
9:35 AM 24.6 °F - 12.4 °F 60% 30.46 in 10.0 mi Calm Calm - N/A   Clear
9:55 AM 25.3 °F - 12.4 °F 58% 30.48 in 10.0 mi Calm Calm - N/A   Clear
10:15 AM 26.1 °F - 11.1 °F 53% 30.47 in 10.0 mi Calm Calm - N/A   Clear
10:35 AM 26.8 °F - 12.0 °F 54% 30.46 in 10.0 mi Calm Calm - N/A   Mostly Cloudy
10:55 AM 26.8 °F - 11.1 °F 52% 30.45 in 10.0 mi Calm Calm - N/A   Overcast
11:15 AM 27.3 °F - 10.2 °F 49% 30.43 in 10.0 mi Calm Calm - N/A   Overcast
11:35 AM 27.7 °F - 9.7 °F 47% 30.41 in 10.0 mi Calm Calm - N/A   Overcast
11:55 AM 28.0 °F - 10.0 °F 47% 30.40 in 10.0 mi Calm Calm - N/A   Overcast
12:15 PM 28.6 °F 24.8 °F 9.1 °F 44% 30.38 in 10.0 mi SSW 3.5 mph - N/A   Overcast
12:35 PM 28.9 °F 22.8 °F 9.3 °F 44% 30.35 in 10.0 mi South 5.8 mph - N/A   Overcast
12:55 PM 29.1 °F 22.1 °F 10.0 °F 45% 30.34 in 10.0 mi SSW 6.9 mph - N/A   Overcast
1:15 PM 28.0 °F 22.8 °F 14.9 °F 58% 30.32 in 1.5 mi SW 4.6 mph - N/A Snow Light Snow
1:35 PM 26.2 °F - 19.4 °F 75% 30.32 in 4.0 mi Calm Calm - N/A Snow Light Snow
2:15 PM 26.2 °F - 21.2 °F 81% 30.26 in 5.0 mi Calm Calm - 0.01 in   Overcast
2:35 PM 26.2 °F - 21.9 °F 84% 30.27 in 10.0 mi Calm Calm - 0.01 in   Overcast
2:55 PM 26.2 °F - 22.3 °F 85% 30.27 in 5.0 mi Calm Calm - 0.01 in Snow Light Snow
3:15 PM 26.6 °F - 23.0 °F 86% 30.26 in 4.0 mi Calm Calm - 0.03 in Snow Light Snow
3:35 PM 26.6 °F 22.6 °F 23.4 °F 88% 30.23 in 4.0 mi ESE 3.5 mph - 0.05 in   Overcast
3:55 PM 26.6 °F 22.6 °F 23.4 °F 88% 30.21 in 5.0 mi SE 3.5 mph - 0.07 in Snow Light Snow
4:15 PM 26.6 °F - 23.9 °F 90% 30.21 in 4.0 mi Calm Calm - 0.02 in Snow Light Snow
4:35 PM 26.6 °F 22.6 °F 23.7 °F 89% 30.18 in 3.0 mi ESE 3.5 mph - 0.05 in Snow Light Snow
4:55 PM 27.0 °F - 24.3 °F 90% 30.18 in 2.5 mi Calm Calm - 0.08 in Snow Light Snow
5:15 PM 27.5 °F - 25.2 °F 91% 30.18 in 2.0 mi Calm Calm - 0.03 in Snow Light Snow
5:35 PM 27.7 °F - 25.5 °F 92% 30.18 in 2.0 mi Calm Calm - 0.05 in Snow Light Snow
5:55 PM 28.2 °F - 26.1 °F 92% 30.17 in 2.0 mi Calm Calm - 0.07 in Snow Light Snow
6:15 PM 28.2 °F - 26.2 °F 92% 30.17 in 1.2 mi Calm Calm - 0.01 in   Overcast
6:35 PM 28.2 °F - 26.4 °F 93% 30.17 in 2.0 mi Calm Calm - 0.02 in   Overcast
6:55 PM 28.4 °F 23.3 °F 26.6 °F 93% 30.18 in 3.0 mi NNW 4.6 mph - 0.02 in   Overcast
7:15 PM 28.4 °F 24.6 °F 26.6 °F 93% 30.18 in 3.0 mi NW 3.5 mph - N/A   Overcast
7:35 PM 28.4 °F - 26.8 °F 94% 30.16 in 1.5 mi Calm Calm - 0.01 in   Overcast
7:55 PM 28.9 °F - 27.3 °F 94% 30.16 in 2.5 mi Calm Calm - 0.01 in   Overcast
8:15 PM 28.9 °F - 27.1 °F 93% 30.14 in 5.0 mi Calm Calm - N/A   Overcast
8:35 PM 28.9 °F - 27.1 °F 93% 30.14 in 2.5 mi Calm Calm - 0.01 in   Overcast
8:55 PM 29.1 °F - 27.5 °F 94% 30.13 in 5.0 mi Calm Calm - 0.01 in   Overcast
9:15 PM 29.3 °F - 27.9 °F 94% 30.13 in 7.0 mi Calm Calm - N/A   Overcast
9:35 PM 29.3 °F 25.6 °F 27.9 °F 94% 30.13 in 7.0 mi WSW 3.5 mph - N/A   Overcast
9:55 PM 29.3 °F 23.2 °F 27.5 °F 93% 30.14 in 7.0 mi SW 5.8 mph - N/A   Overcast
10:15 PM 29.3 °F 24.3 °F 27.5 °F 93% 30.13 in 5.0 mi WSW 4.6 mph - N/A   Overcast
10:35 PM 29.3 °F 23.2 °F 27.5 °F 93% 30.13 in 7.0 mi SW 5.8 mph - N/A   Overcast
10:55 PM 29.3 °F 24.3 °F 27.5 °F 93% 30.13 in 7.0 mi WSW 4.6 mph - N/A   Overcast
11:15 PM 29.5 °F 23.4 °F 27.5 °F 92% 30.12 in 7.0 mi WSW 5.8 mph - N/A   Overcast
11:35 PM 29.7 °F 24.7 °F 27.5 °F 92% 30.12 in 10.0 mi WSW 4.6 mph - N/A   Overcast
11:55 PM 29.8 °F 24.9 °F 27.5 °F 91% 30.12 in 10.0 mi WSW 4.6 mph - N/A   Overcast